Home > Weather > Spartanburg > Past weeks

Flag for USA Past Weather in Spartanburg, South Carolina, USA — Yesterday and Last 2 Weeks

Now
88 °F

Scattered clouds.


Feels Like: 88 °F
Forecast: 68 / 87 °F
Wind: 9 mph from Northeast

Location: Spartanburg Memorial

Current Time: Aug 29, 2016 at 3:52:14 PM

Latest Report: Aug 29, 2016 at 3:35 PM


Visibility: 10 mi

Pressure: 30.12 "Hg

Humidity: 40%

Dew Point: 61 °F

Location of SpartanburgLocation

Past Weather in Spartanburg — Graph

°F

Spartanburg Temperature Yesterday

Maximum temperature yesterday: 90 °F (at 3:35 PM)
Minimum temperature yesterday: 72 °F (at 3:15 AM)
Average temperature yesterday: 79 °F

High & Low Weather Summary for the Past Weeks

 TemperatureHumidityPressure
High95 °F (Aug 26, 3:15 PM)94% (Aug 15, 2:55 AM)30.32 "Hg (Aug 15, 2:55 AM)
Low66 °F (Aug 25, 6:15 AM)36% (Aug 28, 4:55 PM)29.86 "Hg (Aug 21, 4:35 AM)
Average79 °F72%30.13 "Hg
* Reported Aug 14 2:15 PM — Aug 29 2:55 PM, Spartanburg, Weather by CustomWeather, © 2016

Note: Actual official high and low records may vary slightly from our data, if they occured in-between our weather recording intervals... More about our weather records

Advertising

Spartanburg Weather History for the Previous 24 Hours

Scroll right to see more
 ConditionsComfort  
Time TempWeatherWind HumidityBarometerVisibility
2:55 PM
Mon, Aug 29
86 °FScattered clouds.5 mph46%30.13 "Hg10 mi
2:35 PM86 °FScattered clouds.10 mph49%30.15 "Hg10 mi
2:15 PM84 °FBroken clouds.8 mph55%30.15 "Hg10 mi
1:55 PM84 °FScattered clouds.9 mph58%30.16 "Hg10 mi
1:35 PM82 °FBroken clouds.9 mph62%30.16 "Hg10 mi
1:15 PM82 °FScattered clouds.8 mph62%30.17 "Hg10 mi
12:55 PM82 °FScattered clouds.8 mph62%30.17 "Hg10 mi
12:35 PM82 °FScattered clouds.8 mph62%30.17 "Hg10 mi
12:15 PM81 °FScattered clouds.7 mph66%30.18 "Hg10 mi
11:55 AM81 °FScattered clouds.8 mph66%30.18 "Hg10 mi
11:35 AM81 °FScattered clouds.8 mph66%30.19 "Hg10 mi
11:15 AM79 °FPartly sunny.3 mph70%30.18 "Hg10 mi
10:55 AM79 °FScattered clouds.6 mph70%30.19 "Hg10 mi
10:35 AM79 °FSunny.6 mph65%30.19 "Hg10 mi
10:15 AM77 °FSunny.6 mph65%30.18 "Hg10 mi
9:55 AM73 °FSunny.7 mph74%30.18 "Hg10 mi
9:35 AM73 °FSunny.7 mph69%30.18 "Hg10 mi
9:15 AM72 °FSunny.5 mph73%30.17 "Hg10 mi
8:55 AM72 °FSunny.6 mph73%30.17 "Hg10 mi
8:35 AM72 °FScattered clouds.6 mph73%30.17 "Hg10 mi
8:15 AM70 °FSunny.6 mph78%30.17 "Hg10 mi
7:55 AM70 °FClear.6 mph78%30.16 "Hg10 mi
7:35 AM70 °FClear.6 mph78%30.16 "Hg10 mi
7:15 AM70 °FClear.6 mph78%30.16 "Hg10 mi
6:55 AM70 °FClear.6 mph78%30.15 "Hg10 mi
6:35 AM70 °FClear.6 mph78%30.15 "Hg10 mi
6:15 AM70 °FClear.5 mph78%30.14 "Hg10 mi
5:55 AM70 °FClear.5 mph78%30.14 "Hg10 mi
5:35 AM70 °FClear.6 mph78%30.14 "Hg10 mi
5:15 AM70 °FClear.6 mph78%30.13 "Hg10 mi
4:55 AM70 °FPassing clouds.6 mph78%30.14 "Hg10 mi
4:35 AM70 °FPartly cloudy.6 mph78%30.14 "Hg10 mi
4:15 AM72 °FPassing clouds.6 mph73%30.13 "Hg10 mi
3:55 AM72 °FClear.6 mph73%30.14 "Hg10 mi
3:35 AM72 °FPassing clouds.5 mph73%30.13 "Hg10 mi
3:15 AM72 °FPassing clouds.5 mph73%30.14 "Hg10 mi
2:55 AM72 °FPassing clouds.6 mph73%30.15 "Hg10 mi
2:35 AM72 °FPassing clouds.3 mph73%30.15 "Hg10 mi
2:15 AM72 °FPassing clouds.6 mph69%30.15 "Hg10 mi
1:55 AM72 °FClear.5 mph69%30.16 "Hg10 mi
1:35 AM73 °FClear.5 mph65%30.16 "Hg10 mi
1:15 AM72 °FClear.6 mph73%30.16 "Hg10 mi
12:55 AM73 °FClear.5 mph65%30.16 "Hg10 mi
12:35 AM72 °FClear.5 mph73%30.17 "Hg10 mi
12:15 AM73 °FClear.3 mph65%30.16 "Hg10 mi
11:55 PM
Sun, Aug 28
73 °FClear.3 mph69%30.16 "Hg10 mi
11:35 PM73 °FClear.5 mph69%30.15 "Hg10 mi
11:15 PM73 °FClear.6 mph69%30.15 "Hg10 mi
10:55 PM73 °FClear.5 mph65%30.15 "Hg10 mi
10:35 PM77 °FClear.5 mph57%30.14 "Hg10 mi
10:15 PM77 °FClear.5 mph57%30.14 "Hg10 mi
9:55 PM77 °FClear.6 mph57%30.13 "Hg10 mi
9:35 PM79 °FClear.6 mph54%30.13 "Hg10 mi
9:15 PM79 °FClear.5 mph54%30.13 "Hg10 mi
8:55 PM79 °FSunny.5 mph54%30.12 "Hg10 mi
8:35 PM79 °FSunny.6 mph58%30.11 "Hg10 mi
8:15 PM81 °FSunny.6 mph54%30.12 "Hg10 mi
7:55 PM82 °FSunny.5 mph51%30.11 "Hg10 mi
7:35 PM84 °FSunny.5 mph48%30.11 "Hg10 mi
7:15 PM86 °FSunny.5 mph43%30.10 "Hg10 mi
6:55 PM88 °FSunny.8 mph40%30.10 "Hg10 mi
6:35 PM88 °FSunny.5 mph40%30.10 "Hg10 mi
6:15 PM88 °FSunny.9 mph40%30.10 "Hg10 mi
5:55 PM88 °FSunny.5 mph40%30.10 "Hg10 mi
5:35 PM88 °FSunny.8 mph38%30.10 "Hg10 mi
5:15 PM90 °FSunny.6 mph38%30.10 "Hg10 mi
4:55 PM90 °FSunny.7 mph36%30.10 "Hg10 mi
4:35 PM88 °FSunny.9 mph43%30.11 "Hg10 mi
4:15 PM88 °FScattered clouds.8 mph46%30.12 "Hg10 mi
3:55 PM90 °FScattered clouds.10 mph43%30.13 "Hg10 mi
3:35 PM90 °FScattered clouds.9 mph43%30.14 "Hg10 mi
3:15 PM88 °FSunny.8 mph49%30.15 "Hg10 mi
Weather by CustomWeather, © 2016

See weather overviewHow to use our weather pages